Wind_Speed
18 17 17 16 15 14 13 13 12 12 11 11 10 10 10 10 10 9 9 9 8 8 8 8 8 8 8 8 8 8 8 9 9 9 9 9 9 9 9 9 9 9 9
20 19 18 18 17 16 15 14 14 13 13 12 12 12 11 11 11 10 10 10 10 10 10 9 9 9 9 9 9 9 10 10 10 10 10 10 10 10 10 10 10 10 10
21 21 20 19 19 17 17 16 15 15 15 14 14 13 12 12 12 11 11 11 11 11 11 11 11 11 11 11 11 11 11 11 11 11 11 11 11 11 11 11 12 12 12
23 22 21 21 20 19 18 17 17 16 16 16 15 14 14 13 13 13 12 12 12 12 12 13 13 13 13 13 13 13 14 13 13 13 12 12 12 13 13 13 13 14 14
24 24 24 23 22 21 20 19 19 18 17 17 16 16 15 15 15 14 14 14 13 13 13 14 14 15 15 15 15 15 15 15 14 14 14 14 14 14 15 15 15 15 15
25 25 25 24 23 22 21 21 20 19 19 18 17 16 16 16 15 15 15 15 15 15 15 15 16 16 16 16 17 16 16 16 16 16 16 16 16 16 16 16 16 17 16
26 26 25 25 24 23 22 22 21 20 20 19 18 17 17 17 16 16 16 16 15 15 16 16 17 17 18 18 18 18 18 17 17 17 17 18 18 18 18 18 18 18 18
28 27 27 26 25 24 23 23 22 22 21 20 19 19 18 18 18 18 17 17 16 16 16 17 17 18 18 19 19 19 19 19 19 19 19 20 20 20 20 20 20 20 20
29 29 28 27 26 26 25 24 24 23 23 22 21 21 20 19 19 19 18 18 18 18 18 18 18 18 19 19 20 20 21 21 21 21 21 21 22 22 22 22 22 22 22
31 30 30 29 28 27 27 26 25 25 24 24 23 22 21 21 20 20 20 20 20 20 19 19 20 20 20 20 21 21 21 22 23 23 23 24 24 23 23 24 24 24 24
33 32 31 31 30 29 28 28 27 27 26 25 25 24 23 23 22 22 22 21 21 22 21 21 21 21 21 22 22 22 22 23 24 25 25 25 25 25 25 25 25 25 26
33 33 33 32 31 30 30 29 29 28 28 27 26 26 25 25 24 24 23 23 23 23 23 23 23 23 23 23 23 23 24 24 25 25 25 26 26 26 26 26 27 27 27
34 34 34 33 33 32 31 31 31 30 29 28 28 28 27 27 27 26 25 25 25 25 26 25 25 25 24 24 24 24 25 24 24 25 25 26 26 27 27 28 28 29 29
34 33 34 34 33 32 32 32 32 32 31 31 30 29 29 28 28 28 27 27 27 28 28 28 27 27 26 26 25 25 25 25 25 25 26 26 27 28 29 29 30 31 31
34 34 33 33 33 33 33 33 33 33 33 32 31 31 30 29 29 29 29 29 29 29 30 29 29 28 28 27 27 27 27 26 26 26 27 27 28 29 30 31 32 32 33
34 34 34 34 33 32 33 33 34 33 32 32 32 31 31 31 31 31 31 31 31 31 31 30 30 30 29 29 29 29 29 28 28 28 28 29 30 30 31 32 33 34 35
33 34 35 35 35 34 34 34 34 33 33 33 33 33 32 33 33 33 32 33 33 33 33 33 32 31 31 31 31 31 31 30 30 30 31 31 32 33 33 34 35 35 36
33 34 35 35 36 36 35 35 35 34 34 34 34 34 34 34 34 35 34 35 35 34 34 34 33 32 32 32 32 32 32 32 32 33 33 33 34 34 35 35 36 36 37
32 33 36 36 36 37 36 36 36 36 35 35 35 35 36 36 36 36 36 35 35 35 34 35 35 34 34 34 33 33 34 34 34 34 34 35 35 35 36 36 37 37 38
32 32 34 36 37 37 37 37 37 37 37 36 36 36 36 38 37 37 36 35 35 36 36 36 36 35 35 35 35 35 35 35 35 35 36 36 37 37 37 37 38 38 39
31 32 33 35 35 36 37 37 37 37 37 36 37 37 37 37 38 38 38 36 36 36 37 36 37 36 36 36 36 37 36 36 36 37 37 38 38 38 38 38 39 39 40
31 31 32 34 35 35 36 36 37 36 36 37 37 38 38 38 38 38 38 37 37 38 36 36 36 37 37 37 37 37 37 37 38 38 39 39 39 39 40 40 40 40 40
30 30 31 32 34 35 36 36 36 36 37 37 38 39 39 38 39 40 39 39 39 39 38 37 37 38 38 38 39 39 39 38 39 39 40 40 40 40 40 41 41 41 41
30 31 31 31 32 34 35 36 36 36 37 38 39 39 40 39 39 40 40 40 40 40 39 38 38 39 39 40 41 41 41 41 40 40 40 41 41 41 41 42 42 42 42
30 31 31 31 32 33 34 35 35 37 38 38 38 37 39 40 40 40 40 41 40 40 40 39 39 40 40 40 41 42 42 43 43 42 42 42 43 43 43 43 43 43 43
29 30 31 31 33 34 34 35 35 36 37 37 38 38 39 40 40 40 41 41 41 41 41 41 41 41 41 42 42 42 43 44 44 44 44 44 44 44 44 44 44 44 44
Wind_Direction
234 234 232 231 234 235 237 237 238 238 237 237 239 241 243 244 244 245 246 248 252 256 261 265 268 269 271 273 275 277 279 281 282 283 283 282 281 280 282 284 286 288 291
234 234 234 235 236 237 239 240 240 241 242 243 244 245 247 247 246 246 247 250 253 256 259 263 267 269 272 275 277 278 280 281 280 280 280 282 282 281 281 282 284 285 287
237 236 236 237 237 238 241 241 242 244 245 246 247 248 248 249 248 248 251 253 256 258 260 263 267 270 272 275 277 278 279 280 279 278 277 279 279 280 281 281 282 284 284
239 238 237 239 240 240 242 243 244 246 248 249 249 250 250 250 251 252 253 256 258 261 264 266 269 271 272 274 276 277 278 278 277 276 275 276 277 278 280 281 282 282 282
240 238 238 240 242 242 243 244 245 247 249 250 251 251 251 252 254 255 256 257 260 263 266 269 270 271 272 274 275 275 275 275 275 274 274 274 275 276 278 279 280 280 280
241 239 238 240 241 243 244 245 246 247 249 250 251 251 252 254 257 258 259 260 263 266 269 271 272 272 273 273 274 273 272 272 273 272 273 273 274 275 276 277 278 278 278
241 239 238 240 241 242 243 244 246 247 248 249 250 251 253 255 257 260 260 262 264 268 271 273 274 274 274 273 272 271 271 271 272 272 272 273 274 275 276 277 277 277 277
240 238 238 239 240 241 242 243 245 246 247 248 250 252 255 257 258 259 261 262 265 268 271 274 275 276 274 273 271 271 270 270 270 271 272 273 275 276 276 277 277 276 276
238 237 237 238 240 241 243 244 246 246 247 249 250 253 256 257 258 259 260 263 266 269 271 274 276 276 275 274 273 271 270 271 272 272 273 274 276 276 277 277 278 277 276
235 236 236 237 239 241 243 244 246 247 248 249 251 253 255 257 259 259 261 264 267 270 271 274 275 276 276 275 275 274 273 272 273 273 274 275 276 277 278 278 277 277 276
235 235 237 238 240 241 243 244 245 247 248 250 252 253 255 257 259 260 262 264 267 270 272 273 274 276 276 276 276 275 274 274 273 274 275 275 275 276 277 278 277 276 276
234 235 237 239 242 242 242 244 245 247 248 249 251 252 254 256 258 260 262 264 267 269 271 272 273 274 275 276 276 276 276 275 274 274 274 274 275 276 277 277 278 277 276
234 236 238 239 241 242 242 243 244 246 248 249 250 252 253 256 258 261 263 264 267 269 270 273 274 273 274 274 275 276 276 276 275 275 274 274 274 275 276 277 277 277 277
234 237 237 240 241 240 242 243 244 246 248 249 251 253 254 256 259 262 264 266 267 269 270 272 273 274 273 274 275 276 275 276 276 276 275 275 275 277 278 278 278 278 278
234 236 238 240 241 240 242 243 244 247 249 251 253 253 254 256 259 263 265 266 267 269 271 271 273 273 273 274 274 275 275 276 278 279 278 277 276 277 279 279 278 278 278
236 237 238 239 242 241 241 244 246 248 251 253 254 255 256 258 260 262 265 267 268 270 271 271 273 272 274 273 273 274 274 275 277 279 279 279 279 279 280 280 280 280 279
238 238 239 240 241 244 244 245 247 249 252 254 256 257 258 259 260 263 265 267 269 271 271 270 272 272 273 273 273 274 274 275 277 278 279 280 280 279 279 280 281 281 280
239 238 238 240 242 244 245 245 247 250 252 253 255 257 259 260 260 262 265 267 269 271 270 270 270 271 272 273 273 274 275 276 277 278 279 280 280 280 280 281 282 281 281
239 239 239 241 244 244 245 247 249 251 252 254 255 257 259 260 261 262 265 267 268 269 269 269 269 270 271 272 273 274 275 276 277 278 278 280 281 281 282 282 282 281 281
240 242 242 243 245 244 245 247 249 251 252 253 255 256 259 260 261 263 265 267 268 269 269 270 269 269 271 272 273 274 276 277 278 278 279 280 281 281 282 283 283 283 283
243 244 244 246 245 245 247 248 249 251 252 254 255 256 260 260 262 264 266 267 268 269 271 270 269 269 270 272 273 274 275 276 278 278 279 280 281 281 282 283 283 284 284
244 245 245 247 247 248 247 248 251 251 253 254 255 257 260 262 263 266 266 267 268 269 271 272 269 269 270 271 273 274 274 276 277 278 279 280 280 281 282 283 283 284 284
246 248 248 248 249 248 248 250 252 253 254 255 256 259 261 263 264 265 265 267 268 269 270 271 271 271 272 272 272 274 274 275 276 278 279 279 280 281 282 283 283 284 284
248 250 251 250 250 250 249 251 253 254 255 256 258 261 262 264 266 265 266 266 267 268 269 271 272 272 273 273 273 274 275 277 277 278 278 279 279 281 282 282 283 284 283
251 251 252 252 252 253 253 254 256 258 258 259 261 264 265 266 267 267 267 267 268 268 269 271 272 273 274 274 273 274 276 277 279 279 278 279 280 280 281 282 282 283 282
253 253 254 255 256 256 257 258 259 260 261 262 264 266 268 268 269 269 269 269 269 269 269 270 272 273 274 274 274 275 276 277 279 279 279 279 280 281 282 282 282 282 282
Height
5853 5854 5856 5857 5859 5860 5861 5862 5863 5864 5864 5865 5865 5866 5866 5867 5867 5868 5868 5868 5869 5869 5869 5869 5870 5870 5870 5870 5870 5870 5870 5870 5870 5870 5870 5870 5870 5870 5870 5870 5870 5870 5870
5850 5852 5853 5855 5856 5857 5859 5860 5861 5862 5862 5863 5864 5864 5864 5865 5866 5866 5866 5867 5867 5867 5868 5868 5868 5868 5868 5868 5868 5868 5868 5868 5868 5868 5868 5868 5868 5868 5868 5868 5868 5868 5868
5847 5848 5850 5852 5853 5855 5856 5857 5858 5859 5860 5861 5861 5862 5862 5863 5863 5864 5864 5865 5865 5865 5866 5866 5866 5866 5866 5866 5866 5866 5866 5866 5866 5866 5866 5866 5866 5866 5866 5866 5866 5866 5866
5843 5845 5847 5848 5850 5852 5853 5854 5856 5857 5857 5858 5859 5860 5860 5861 5861 5862 5862 5862 5863 5863 5863 5864 5864 5864 5864 5864 5864 5864 5864 5864 5864 5864 5864 5864 5864 5864 5864 5864 5864 5864 5863
5839 5841 5843 5845 5846 5848 5850 5851 5852 5853 5854 5855 5856 5857 5857 5858 5858 5859 5859 5860 5860 5861 5861 5861 5861 5861 5861 5861 5861 5861 5861 5861 5861 5861 5861 5861 5861 5861 5861 5861 5861 5861 5861
5834 5836 5839 5841 5842 5844 5846 5848 5849 5850 5851 5852 5853 5854 5854 5855 5856 5856 5856 5857 5857 5858 5858 5858 5858 5858 5858 5858 5858 5858 5858 5858 5858 5858 5858 5858 5858 5858 5858 5858 5858 5858 5858
5829 5832 5834 5836 5838 5840 5842 5843 5845 5846 5847 5849 5850 5851 5851 5852 5852 5853 5853 5854 5854 5854 5855 5855 5855 5855 5855 5855 5854 5854 5855 5855 5855 5855 5855 5855 5855 5855 5855 5855 5854 5854 5854
5824 5826 5829 5831 5833 5835 5837 5839 5841 5842 5844 5845 5846 5847 5848 5848 5849 5849 5850 5850 5851 5851 5851 5851 5851 5851 5851 5851 5851 5851 5851 5851 5851 5851 5851 5851 5851 5851 5851 5851 5850 5850 5850
5818 5821 5824 5826 5828 5830 5832 5834 5836 5838 5839 5841 5842 5843 5844 5844 5845 5846 5846 5847 5847 5847 5847 5847 5847 5847 5847 5846 5846 5846 5846 5847 5847 5847 5847 5847 5847 5847 5846 5846 5846 5846 5846
5812 5815 5818 5821 5823 5825 5827 5829 5831 5833 5835 5836 5837 5838 5840 5840 5841 5842 5842 5843 5843 5843 5843 5843 5843 5843 5842 5842 5842 5842 5842 5842 5842 5842 5842 5842 5842 5842 5842 5841 5841 5841 5841
5805 5809 5812 5815 5817 5820 5822 5824 5826 5828 5830 5831 5832 5834 5835 5836 5837 5837 5838 5839 5839 5839 5839 5839 5839 5838 5838 5838 5837 5837 5837 5837 5837 5837 5837 5837 5837 5836 5836 5836 5836 5836 5836
5799 5802 5806 5808 5811 5814 5816 5818 5820 5822 5824 5826 5827 5829 5830 5831 5832 5833 5833 5834 5834 5834 5834 5834 5834 5834 5833 5833 5832 5832 5832 5832 5831 5831 5831 5831 5831 5831 5831 5830 5830 5830 5830
5792 5795 5799 5802 5804 5807 5810 5812 5814 5816 5818 5820 5821 5823 5824 5826 5827 5827 5828 5829 5829 5829 5829 5829 5829 5829 5828 5828 5828 5827 5827 5826 5826 5825 5825 5825 5825 5825 5825 5824 5824 5824 5823
5784 5788 5792 5795 5796 5799 5803 5805 5808 5810 5812 5814 5815 5817 5819 5820 5821 5822 5823 5823 5823 5823 5823 5824 5823 5823 5823 5823 5822 5822 5821 5821 5820 5820 5819 5819 5819 5819 5818 5818 5817 5817 5817
5777 5781 5784 5787 5789 5792 5795 5798 5801 5803 5805 5807 5809 5811 5812 5814 5815 5816 5817 5817 5817 5817 5817 5818 5818 5817 5817 5817 5816 5816 5815 5815 5814 5814 5813 5813 5812 5812 5812 5811 5810 5810 5809
5769 5773 5776 5780 5782 5785 5788 5791 5794 5796 5798 5800 5802 5804 5806 5807 5808 5809 5810 5810 5811 5811 5811 5811 5811 5811 5811 5810 5810 5810 5809 5808 5808 5807 5807 5806 5806 5805 5804 5804 5803 5802 5801
5762 5765 5769 5772 5775 5777 5780 5783 5786 5789 5791 5793 5795 5797 5798 5800 5801 5802 5803 5803 5804 5804 5804 5804 5804 5804 5804 5804 5803 5803 5802 5802 5801 5801 5800 5799 5798 5798 5797 5796 5795 5793 5792
5754 5758 5761 5764 5768 5770 5772 5775 5778 5781 5784 5786 5788 5789 5791 5792 5793 5794 5795 5796 5796 5796 5796 5796 5797 5797 5797 5796 5796 5796 5795 5794 5794 5793 5792 5791 5791 5790 5789 5787 5786 5784 5783
5747 5750 5753 5756 5759 5761 5764 5767 5770 5773 5776 5778 5780 5781 5783 5784 5785 5786 5787 5788 5788 5788 5788 5788 5789 5789 5789 5789 5789 5788 5787 5787 5786 5785 5784 5783 5782 5781 5780 5779 5777 5775 5774
5740 5743 5745 5749 5751 5754 5757 5760 5763 5765 5767 5770 5772 5773 5774 5776 5777 5778 5779 5779 5780 5780 5780 5779 5780 5780 5781 5781 5780 5780 5779 5778 5778 5777 5776 5775 5774 5772 5771 5769 5768 5766 5764
5734 5736 5739 5741 5744 5746 5749 5753 5755 5757 5759 5762 5764 5766 5766 5767 5769 5769 5770 5771 5771 5772 5771 5771 5771 5771 5771 5772 5771 5771 5770 5770 5769 5768 5767 5766 5765 5763 5762 5760 5759 5757 5755
5728 5730 5732 5734 5737 5739 5742 5745 5748 5749 5751 5754 5755 5757 5758 5759 5760 5761 5761 5762 5762 5763 5762 5762 5762 5762 5762 5762 5762 5761 5761 5762 5760 5759 5758 5757 5755 5754 5752 5751 5749 5747 5745
5722 5724 5726 5728 5731 5733 5735 5738 5740 5742 5743 5746 5748 5749 5750 5750 5751 5752 5753 5753 5754 5754 5753 5753 5753 5754 5753 5753 5752 5752 5752 5752 5751 5750 5748 5747 5746 5744 5742 5741 5739 5737 5735
5717 5719 5721 5723 5725 5726 5729 5731 5732 5734 5736 5737 5739 5740 5741 5741 5742 5743 5744 5744 5744 5745 5744 5744 5744 5744 5744 5743 5743 5742 5741 5741 5741 5741 5739 5737 5736 5734 5732 5731 5729 5727 5725
5712 5714 5715 5717 5719 5720 5722 5723 5725 5726 5727 5729 5730 5731 5732 5733 5733 5734 5734 5734 5735 5735 5735 5735 5735 5734 5734 5733 5732 5732 5731 5730 5729 5729 5729 5727 5725 5723 5722 5720 5718 5716 5714
5706 5708 5709 5711 5713 5714 5715 5716 5717 5718 5719 5720 5721 5722 5723 5723 5724 5724 5724 5724 5724 5725 5725 5725 5724 5724 5723 5723 5721 5721 5720 5719 5718 5717 5716 5716 5714 5713 5711 5709 5707 5705 5703